261  
SXUS51 KOKX 201657  
OSOOKX  
NEW YORK CITY METROPOLITAN AREA WEATHER ROUNDUP  
NATIONAL WEATHER SERVICE NEW YORK NY  
100 PM EDT SUN MAY 20 2018  
 
CITY SKY/WX TMP DP RH WIND PRES REMARKS  
CENTRAL PARK FAIR 80 65 59 W8 29.95F  
LAGUARDIA ARPT PTSUNNY 82 63 52 W15G28 29.91F  
KENNEDY INTL PTSUNNY 79 68 69 SW14 29.93F  
NEWARK LIBERTY PTSUNNY 82 64 54 W20 29.93S  
TETERBORO ARPT PTSUNNY 81 66 60 W14 29.91F  
BRONX BOT GARD N/A 79 63 57 SW8 29.94S  
BRONX LEHMAN C N/A 79 64 61 W8 N/A  
QUEENS COLLEGE N/A 79 66 65 W14 N/A  
BREEZY POINT N/A 72 N/A N/A W10G16 N/A  
BROOKLYN COLL N/A 81 66 61 W17 N/A  
STATEN ISLAND N/A 81 66 61 W14 N/A  
 
>>>>>>>>>>>>>>>>>>>>>>>>>>>>>>>>> KEY <<<<<<<<<<<<<<<<<<<<<<<<<<<<<<<  
> SKY/WX - SKY CONDITION/PRESENT : R : WCI - WIND CHILL INDEX <  
> WEATHER : E : VSB - VISIBILITY IN MILES <  
> TMP - TEMPERATURE IN DEG F : M : HX - HEAT INDEX <  
> DP - DEW POINT TEMPERATURE : A : TC - TEMPERATURE IN <  
> RH - RELATIVE HUMIDITY : R : CELSIUS <  
> WIND - DIRECTION/SPEED (MPH) : K : VRB - VARIABLE WIND DIR <  
> PRES - PRESSURE (IN HG) : S : <  
>>>>>>>>>>>>>>>>>>>>>>>>>>>>>>>>> KEY <<<<<<<<<<<<<<<<<<<<<<<<<<<<<<<  
 
 
CLICK HERE TO GO TO PREVIOUS BULLETINS.

The Nexlab NY Page
The Nexlab NJ Page
The Nexlab CT Page Main Text Page